20041102,162034,0,32.706633,-117.236260,0.0,18.954,0.077,0.139,1900.35,0.0,0.234, NaN, NaN, NaN,0.000,   NaN,18.59,1023.39,49.22,17.91,285.4,260.2,0.0,0.4,0.0,28.9,0.0,0.4,NaN, NaN,30.4,339.2,214.7,1099412436,1099412435,1,0.0,058835,058835,128.6,32.706615,-117.236128,NaN,NaN,NaN,18.959, NaN,NaN,NaN, NaN, NaN
20041102,162104,29,32.706630,-117.236260,0.0,18.952,0.077,0.139,1904.81,0.0,0.232, NaN, NaN, NaN,0.000,   NaN,18.34,1023.39,48.93,17.92,285.3,253.6,0.0,0.4,0.0,22.2,0.0,0.4,NaN, NaN,31.0,339.2,214.7,1099412466,1099412465,1,0.0,058865,058865,128.5,32.706615,-117.236157,NaN,NaN,NaN,18.957, NaN,NaN,NaN, NaN, NaN
20041102,162133,59,32.706626,-117.236262,0.0,18.951,0.077,0.139,1907.69,0.0,0.233, NaN, NaN, NaN,0.000,   NaN,18.34,1023.39,48.92,17.96,285.3,256.9,0.0,0.3,0.0,25.5,0.0,0.3,NaN, NaN,30.4,339.2,214.7,1099412495,1099412495,1,0.0,058895,058895,128.6,32.706626,-117.236168,NaN,NaN,NaN,18.956, NaN,NaN,NaN, NaN, NaN
20041102,162204,89,32.706628,-117.236265,0.0,18.949,0.077,0.139,1913.24,0.0,0.235, NaN, NaN, NaN,0.000,   NaN,18.36,1023.41,47.34,17.92,285.3,257.4,0.0,0.4,0.0,26.0,0.0,0.4,NaN, NaN,31.5,339.2,214.7,1099412526,1099412525,1,0.1,058925,058925,128.8,32.706623,-117.236182,NaN,NaN,NaN,18.954, NaN,NaN,NaN, NaN, NaN
20041102,162234,119,32.706621,-117.236265,0.0,18.948,0.077,0.139,1919.67,0.0,0.236, NaN, NaN, NaN,0.000,   NaN,18.13,1023.39,47.07,17.92,284.4,250.1,0.0,0.6,0.1,18.8,0.0,0.6,NaN, NaN,31.2,339.2,214.7,1099412556,1099412555,1,0.1,058956,058955,128.8,32.706620,-117.236182,NaN,NaN,NaN,18.953, NaN,NaN,NaN, NaN, NaN
20041102,162305,150,32.706625,-117.236267,0.0,18.946,0.077,0.139,1923.57,0.0,0.242, NaN, NaN, NaN,0.000,   NaN,17.99,1023.40,44.09,17.81,280.2,244.0,0.1,0.9,19.5,12.8,0.1,0.9,NaN, NaN,31.0,339.2,214.7,1099412587,1099412585,1,0.1,058986,058985,128.6,32.706625,-117.236172,NaN,NaN,NaN,18.951, NaN,NaN,NaN, NaN, NaN
20041102,162335,180,32.706626,-117.236268,0.0,18.944,0.077,0.139,1926.03,0.0,0.244, NaN, NaN, NaN,0.000,   NaN,17.90,1023.39,43.59,17.75,275.2,242.5,0.3,0.9,38.3,11.2,0.3,0.9,NaN, NaN,31.1,339.2,214.7,1099412616,1099412615,1,0.1,059016,059015,128.8,32.706626,-117.236168,NaN,NaN,NaN,18.949, NaN,NaN,NaN, NaN, NaN
20041102,162405,211,32.706626,-117.236267,0.0,18.942,0.077,0.139,1931.30,0.0,0.232, NaN, NaN, NaN,0.000,   NaN,17.90,1023.39,40.98,17.65,273.2,242.5,0.3,0.8,41.9,11.2,0.3,0.8,NaN, NaN,30.8,339.2,214.7,1099412647,1099412645,1,0.1,059046,059045,128.7,32.706636,-117.236172,NaN,NaN,NaN,18.947, NaN,NaN,NaN, NaN, NaN
20041102,162434,239,32.706626,-117.236267,0.0,18.941,0.077,0.139,1928.40,0.0,0.239, NaN, NaN, NaN,0.000,   NaN,17.90,1023.41,38.78,17.65,272.6,246.2,0.4,0.8,41.4,15.0,0.4,0.8,NaN, NaN,31.0,339.2,214.7,1099412676,1099412675,1,0.1,059076,059075,128.7,32.706626,-117.236157,NaN,NaN,NaN,18.946, NaN,NaN,NaN, NaN, NaN
20041102,162505,270,32.706625,-117.236270,0.0,18.939,0.077,0.139,1921.93,0.0,0.234, NaN, NaN, NaN,0.000,   NaN,17.87,1023.38,38.56,17.68,272.7,255.3,0.5,0.8,41.4,24.0,0.5,0.8,NaN, NaN,31.4,339.2,214.7,1099412707,1099412705,1,0.1,059106,059105,128.6,32.706616,-117.236152,NaN,NaN,NaN,18.944, NaN,NaN,NaN, NaN, NaN
20041102,162535,300,32.706625,-117.236272,0.0,18.937,0.077,0.139,1927.51,0.0,0.235, NaN, NaN, NaN,0.000,   NaN,17.87,1023.42,39.64,17.72,274.0,267.1,0.5,0.8,42.6,35.7,0.5,0.8,NaN, NaN,31.7,339.2,214.7,1099412737,1099412735,1,0.1,059137,059135,128.6,32.706628,-117.236163,NaN,NaN,NaN,18.942, NaN,NaN,NaN, NaN, NaN
20041102,162605,330,32.706628,-117.236268,0.0,18.935,0.077,0.139,1928.39,0.0,0.229, NaN, NaN, NaN,0.000,   NaN,17.89,1023.41,37.10,17.65,276.1,274.7,0.4,0.7,44.7,43.3,0.4,0.7,NaN, NaN,31.9,339.2,214.7,1099412766,1099412765,1,0.1,059166,059165,128.6,32.706630,-117.236182,NaN,NaN,NaN,18.940, NaN,NaN,NaN, NaN, NaN
20041102,162635,360,32.706626,-117.236270,0.0,18.934,0.077,0.139,1925.12,0.0,0.231, NaN, NaN, NaN,0.000,   NaN,17.95,1023.40,37.14,17.68,277.6,282.1,0.3,0.6,46.2,50.7,0.3,0.6,NaN, NaN,31.9,339.2,214.7,1099412797,1099412795,1,0.1,059196,059195,128.6,32.706623,-117.236178,NaN,NaN,NaN,18.939, NaN,NaN,NaN, NaN, NaN
20041102,162705,391,32.706631,-117.236267,0.0,18.932,0.077,0.139,1928.17,0.0,0.233, NaN, NaN, NaN,0.000,   NaN,18.11,1023.40,36.91,17.72,279.3,294.6,0.1,0.6,29.7,63.2,0.1,0.6,NaN, NaN,32.4,339.2,214.7,1099412827,1099412825,1,0.1,059226,059225,128.7,32.706623,-117.236172,NaN,NaN,NaN,18.937, NaN,NaN,NaN, NaN, NaN
20041102,162735,420,32.706631,-117.236267,0.0,18.930,0.077,0.139,1943.87,0.0,0.237, NaN, NaN, NaN,0.000,   NaN,18.28,1023.40,37.39,17.78,281.3,308.2,0.0,0.6,8.1,76.9,0.0,0.6,NaN, NaN,31.7,339.2,214.7,1099412857,1099412855,1,0.0,059257,059255,128.7,32.706630,-117.236175,NaN,NaN,NaN,18.935, NaN,NaN,NaN, NaN, NaN
20041102,162805,450,32.706635,-117.236267,0.0,18.928,0.077,0.139,1951.11,0.0,0.231, NaN, NaN, NaN,0.000,   NaN,18.42,1023.41,37.85,17.81,282.0,311.9,0.0,0.6,1.4,80.6,0.0,0.6,NaN, NaN,31.8,339.2,214.7,1099412887,1099412885,1,0.1,059286,059285,128.7,32.706645,-117.236168,NaN,NaN,NaN,18.933, NaN,NaN,NaN, NaN, NaN
20041102,162835,480,32.706631,-117.236267,0.0,18.927,0.077,0.139,1963.02,0.0,0.237, NaN, NaN, NaN,0.000,   NaN,18.54,1023.46,37.58,17.88,282.0,316.9,0.0,0.5,1.4,85.7,0.0,0.5,NaN, NaN,32.4,339.2,214.7,1099412917,1099412915,1,0.1,059317,059315,128.5,32.706641,-117.236160,NaN,NaN,NaN,18.932, NaN,NaN,NaN, NaN, NaN
20041102,162905,510,32.706633,-117.236273,0.0,18.925,0.077,0.139,1963.24,0.0,0.229, NaN, NaN, NaN,0.000,   NaN,18.57,1023.47,36.07,17.92,282.4,315.8,0.1,0.6,17.8,84.4,0.1,0.6,NaN, NaN,33.4,339.2,214.7,1099412947,1099412945,1,0.1,059346,059345,128.6,32.706650,-117.236163,NaN,NaN,NaN,18.930, NaN,NaN,NaN, NaN, NaN
20041102,162936,541,32.706626,-117.236270,0.0,18.923,0.077,0.139,1970.12,0.0,0.238, NaN, NaN, NaN,0.000,   NaN,18.54,1023.47,37.30,17.96,284.5,311.1,0.3,0.7,43.9,79.8,0.3,0.7,NaN, NaN,32.0,339.2,214.7,1099412977,1099412975,1,0.0,059377,059375,128.9,32.706656,-117.236170,NaN,NaN,NaN,18.928, NaN,NaN,NaN, NaN, NaN
20041102,163005,571,32.706630,-117.236272,0.0,18.922,0.077,0.139,1974.02,0.0,0.231, NaN, NaN, NaN,0.000,   NaN,18.49,1023.49,36.14,17.99,287.3,306.7,0.5,0.7,56.1,75.5,0.5,0.7,NaN, NaN,31.9,339.2,214.7,1099413007,1099413005,1,0.1,059406,059405,128.7,32.706650,-117.236170,NaN,NaN,NaN,18.927, NaN,NaN,NaN, NaN, NaN
20041102,163035,600,32.706631,-117.236267,0.0,18.920,0.077,0.139,1978.64,0.0,0.234, NaN, NaN, NaN,0.000,   NaN,18.46,1023.51,36.09,17.96,288.9,301.1,0.6,0.8,57.7,69.9,0.6,0.8,NaN, NaN,31.5,339.2,214.7,1099413037,1099413035,1,0.1,059437,059435,128.7,32.706645,-117.236172,NaN,NaN,NaN,18.925, NaN,NaN,NaN, NaN, NaN
20041102,163105,630,32.706631,-117.236268,0.0,18.919,0.077,0.139,1981.01,0.0,0.232, NaN, NaN, NaN,0.000,   NaN,18.33,1023.51,35.90,17.96,288.7,296.3,0.7,0.9,57.3,65.0,0.7,0.9,NaN, NaN,31.7,339.2,214.7,1099413067,1099413065,1,0.0,059466,059465,128.7,32.706646,-117.236163,NaN,NaN,NaN,18.924, NaN,NaN,NaN, NaN, NaN
20041102,163134,660,32.706631,-117.236265,0.0,18.917,0.077,0.139,1981.85,0.0,0.239, NaN, NaN, NaN,0.000,   NaN,18.20,1023.52,35.70,17.91,288.2,292.3,0.7,0.9,56.9,61.0,0.7,0.9,NaN, NaN,31.1,339.2,214.7,1099413096,1099413095,1,0.1,059496,059495,128.6,32.706653,-117.236157,NaN,NaN,NaN,18.922, NaN,NaN,NaN, NaN, NaN
20041102,163205,690,32.706631,-117.236268,0.0,18.916,0.077,0.139,1983.48,0.0,0.232, NaN, NaN, NaN,0.000,   NaN,18.14,1023.52,36.84,17.84,287.7,291.2,0.7,0.9,56.4,59.8,0.7,0.9,NaN, NaN,31.1,339.2,214.7,1099413127,1099413125,1,0.1,059526,059525,128.8,32.706651,-117.236150,NaN,NaN,NaN,18.921, NaN,NaN,NaN, NaN, NaN
20041102,163235,721,32.706631,-117.236267,0.0,18.914,0.077,0.139,1989.28,0.0,0.232, NaN, NaN, NaN,0.000,   NaN,18.06,1023.53,36.57,17.78,287.1,289.2,0.7,0.9,55.8,57.9,0.7,0.9,NaN, NaN,30.7,339.2,214.7,1099413157,1099413155,1,0.1,059556,059555,128.6,32.706638,-117.236133,NaN,NaN,NaN,18.919, NaN,NaN,NaN, NaN, NaN
20041102,163306,751,32.706631,-117.236267,0.0,18.913,0.077,0.139,1989.95,0.0,0.238, NaN, NaN, NaN,0.000,   NaN,18.00,1023.52,35.62,17.75,286.7,287.2,0.7,0.9,55.4,55.9,0.7,0.9,NaN, NaN,30.6,339.2,214.7,1099413188,1099413185,1,0.1,059587,059585,128.7,32.706626,-117.236140,NaN,NaN,NaN,18.918, NaN,NaN,NaN, NaN, NaN
20041102,163335,780,32.706631,-117.236267,0.0,18.911,0.077,0.139,1994.26,0.0,0.234, NaN, NaN, NaN,0.000,   NaN,17.99,1023.54,35.69,17.75,286.4,281.0,0.7,0.9,55.1,49.7,0.7,0.9,NaN, NaN,30.9,339.2,214.7,1099413217,1099413215,1,0.0,059617,059615,128.6,32.706631,-117.236145,NaN,NaN,NaN,18.916, NaN,NaN,NaN, NaN, NaN
20041102,163405,810,32.706628,-117.236267,0.0,18.910,0.077,0.139,1997.05,0.0,0.232, NaN, NaN, NaN,0.000,   NaN,18.03,1023.55,36.15,17.75,286.2,280.0,0.7,0.9,54.9,48.7,0.7,0.9,NaN, NaN,31.0,339.2,214.7,1099413247,1099413245,1,0.1,059646,059645,128.8,32.706626,-117.236145,NaN,NaN,NaN,18.915, NaN,NaN,NaN, NaN, NaN
20041102,163436,841,32.706633,-117.236267,0.0,18.909,0.077,0.139,2001.02,0.0,0.237, NaN, NaN, NaN,0.000,   NaN,17.99,1023.54,36.95,17.78,286.3,284.2,0.7,0.9,55.0,52.9,0.7,0.9,NaN, NaN,30.9,339.2,214.7,1099413277,1099413275,1,0.0,059677,059675,128.6,32.706626,-117.236163,NaN,NaN,NaN,18.914, NaN,NaN,NaN, NaN, NaN
20041102,163505,870,32.706631,-117.236267,0.0,18.908,0.077,0.139,2005.65,0.0,0.232, NaN, NaN, NaN,0.000,   NaN,18.01,1023.54,38.05,17.75,286.7,289.3,0.8,1.0,55.4,58.1,0.8,1.0,NaN, NaN,31.1,339.2,214.7,1099413307,1099413305,1,0.0,059706,059705,128.7,32.706631,-117.236147,NaN,NaN,NaN,18.913, NaN,NaN,NaN, NaN, NaN
20041102,163535,901,32.706630,-117.236267,0.0,18.907,0.077,0.139,2006.18,0.0,0.234, NaN, NaN, NaN,0.000,   NaN,18.03,1023.54,36.37,17.78,289.5,294.9,0.8,1.0,58.2,63.5,0.8,1.0,NaN, NaN,31.7,339.2,214.7,1099413337,1099413335,1,0.1,059737,059735,128.5,32.706636,-117.236172,NaN,NaN,NaN,18.912, NaN,NaN,NaN, NaN, NaN
20041102,163606,931,32.706630,-117.236265,0.0,18.906,0.077,0.139,2008.30,0.0,0.233, NaN, NaN, NaN,0.000,   NaN,18.06,1023.53,37.36,17.75,292.8,301.8,0.9,1.1,61.3,70.3,0.9,1.1,NaN, NaN,31.4,339.2,214.7,1099413368,1099413365,1,0.0,059767,059765,128.6,32.706638,-117.236168,NaN,NaN,NaN,18.911, NaN,NaN,NaN, NaN, NaN
20041102,163635,960,32.706631,-117.236265,0.0,18.905,0.077,0.139,2012.15,0.0,0.234, NaN, NaN, NaN,0.000,   NaN,18.09,1023.53,36.27,17.75,295.0,305.8,0.9,1.2,63.5,74.4,0.9,1.2,NaN, NaN,30.9,339.2,214.7,1099413397,1099413395,1,0.1,059797,059795,128.7,32.706635,-117.236173,NaN,NaN,NaN,18.910, NaN,NaN,NaN, NaN, NaN
20041102,163706,992,32.706630,-117.236267,0.0,18.904,0.077,0.139,2016.92,0.0,0.240, NaN, NaN, NaN,0.000,   NaN,18.02,1023.52,38.23,17.78,297.3,308.3,1.0,1.3,66.0,76.9,1.0,1.3,NaN, NaN,30.7,339.2,214.7,1099413427,1099413425,1,0.1,059827,059825,128.7,32.706635,-117.236182,NaN,NaN,NaN,18.909, NaN,NaN,NaN, NaN, NaN
20041102,163735,1020,32.706631,-117.236268,0.0,18.903,0.077,0.139,2016.18,0.0,0.234, NaN, NaN, NaN,0.000,   NaN,17.94,1023.52,37.46,17.75,299.6,308.4,1.1,1.4,68.3,77.0,1.1,1.4,NaN, NaN,30.5,339.2,214.7,1099413457,1099413455,1,0.1,059857,059855,128.7,32.706633,-117.236172,NaN,NaN,NaN,18.908, NaN,NaN,NaN, NaN, NaN
20041102,163806,1051,32.706633,-117.236267,0.0,18.903,0.077,0.139,2017.33,0.0,0.238, NaN, NaN, NaN,0.000,   NaN,17.89,1023.52,39.89,17.75,300.9,310.0,1.1,1.4,69.6,78.7,1.1,1.4,NaN, NaN,30.1,339.2,214.7,1099413488,1099413485,1,0.1,059887,059885,128.7,32.706638,-117.236183,NaN,NaN,NaN,18.908, NaN,NaN,NaN, NaN, NaN
20041102,163835,1081,32.706633,-117.236268,0.0,18.902,0.077,0.139,2021.33,0.0,0.238, NaN, NaN, NaN,0.000,   NaN,17.87,1023.52,41.62,17.68,300.1,308.4,1.1,1.4,68.8,77.2,1.1,1.4,NaN, NaN,30.4,339.2,214.7,1099413517,1099413515,1,0.1,059917,059915,128.8,32.706638,-117.236182,NaN,NaN,NaN,18.907, NaN,NaN,NaN, NaN, NaN
20041102,163906,1111,32.706633,-117.236267,0.0,18.902,0.077,0.139,2022.45,0.0,0.240, NaN, NaN, NaN,0.000,   NaN,17.85,1023.52,42.16,17.68,299.9,309.4,1.0,1.3,68.7,78.2,1.0,1.3,NaN, NaN,31.1,339.2,214.7,1099413548,1099413545,1,0.1,059947,059945,128.8,32.706638,-117.236173,NaN,NaN,NaN,18.907, NaN,NaN,NaN, NaN, NaN
20041102,163935,1140,32.706635,-117.236265,0.0,18.901,0.077,0.139,2023.59,0.0,0.244, NaN, NaN, NaN,0.000,   NaN,17.86,1023.52,43.24,17.68,299.5,308.3,1.0,1.2,68.3,77.1,1.0,1.2,NaN, NaN,31.6,339.2,214.7,1099413577,1099413575,1,0.1,059977,059975,128.6,32.706651,-117.236168,NaN,NaN,NaN,18.906, NaN,NaN,NaN, NaN, NaN
20041102,164006,1171,32.706631,-117.236267,0.0,18.901,0.077,0.139,2023.72,0.0,0.240, NaN, NaN, NaN,0.000,   NaN,17.83,1023.52,42.49,17.68,299.4,308.9,0.9,1.2,68.1,77.7,0.9,1.2,NaN, NaN,31.8,339.2,214.7,1099413607,1099413605,1,0.1,060007,060005,128.7,32.706650,-117.236178,NaN,NaN,NaN,18.906, NaN,NaN,NaN, NaN, NaN
20041102,164035,1200,32.706631,-117.236267,0.0,18.901,0.077,0.139,2021.86,0.0,0.229, NaN, NaN, NaN,0.000,   NaN,17.88,1023.54,46.09,17.72,301.6,314.5,0.9,1.1,70.3,83.2,0.9,1.1,NaN, NaN,31.8,339.2,214.7,1099413637,1099413635,1,0.1,060037,060035,128.8,32.706641,-117.236180,NaN,NaN,NaN,18.906, NaN,NaN,NaN, NaN, NaN
20041102,164106,1231,32.706628,-117.236267,0.0,18.901,0.077,0.139,2022.21,0.0,0.237, NaN, NaN, NaN,0.000,   NaN,17.74,1023.52,51.00,17.88,307.1,323.4,0.9,1.2,75.8,92.1,0.9,1.2,NaN, NaN,31.6,339.2,214.7,1099413668,1099413665,1,0.1,060067,060065,128.4,32.706650,-117.236202,NaN,NaN,NaN,18.906, NaN,NaN,NaN, NaN, NaN
20041102,164135,1260,32.706626,-117.236265,0.0,18.901,0.077,0.139,2025.99,0.0,0.241, NaN, NaN, NaN,0.000,   NaN,17.66,1023.54,51.47,17.91,310.8,326.9,1.0,1.2,79.4,95.4,1.0,1.2,NaN, NaN,31.9,339.2,214.7,1099413697,1099413695,1,0.1,060097,060095,128.2,32.706645,-117.236202,NaN,NaN,NaN,18.906, NaN,NaN,NaN, NaN, NaN
20041102,164206,1292,32.706626,-117.236265,0.0,18.900,0.077,0.139,2031.33,0.0,0.244, NaN, NaN, NaN,0.000,   NaN,17.56,1023.55,52.07,17.88,312.3,326.0,1.1,1.3,80.6,94.3,1.1,1.3,NaN, NaN,31.5,339.2,214.7,1099413728,1099413725,1,0.1,060127,060125,128.2,32.706641,-117.236197,NaN,NaN,NaN,18.905, NaN,NaN,NaN, NaN, NaN
20041102,164236,1322,32.706626,-117.236265,0.0,18.900,0.077,0.139,2036.59,0.0,0.235, NaN, NaN, NaN,0.000,   NaN,17.54,1023.54,52.95,17.88,313.1,326.7,1.1,1.3,81.3,94.9,1.1,1.3,NaN, NaN,31.1,339.2,214.7,1099413758,1099413755,1,0.1,060157,060155,128.1,32.706653,-117.236207,NaN,NaN,NaN,18.905, NaN,NaN,NaN, NaN, NaN
20041102,164306,1351,32.706625,-117.236263,0.0,18.900,0.077,0.139,2036.24,0.0,0.244, NaN, NaN, NaN,0.000,   NaN,17.53,1023.57,49.25,17.84,311.3,324.7,1.1,1.3,79.5,92.9,1.1,1.3,NaN, NaN,30.0,339.2,214.7,1099413788,1099413785,1,0.1,060187,060185,128.3,32.706661,-117.236190,NaN,NaN,NaN,18.905, NaN,NaN,NaN, NaN, NaN
20041102,164336,1381,32.706633,-117.236267,0.0,18.901,0.077,0.139,2040.32,0.0,0.253, NaN, NaN, NaN,0.000,   NaN,17.53,1023.57,51.19,17.81,311.7,324.8,1.1,1.3,79.9,92.9,1.1,1.3,NaN, NaN,29.4,339.2,214.7,1099413818,1099413815,1,0.1,060217,060215,128.1,32.706661,-117.236122,NaN,NaN,NaN,18.906, NaN,NaN,NaN, NaN, NaN
20041102,164406,1411,32.706635,-117.236268,0.0,18.901,0.077,0.139,2042.89,0.0,0.246, NaN, NaN, NaN,0.000,   NaN,17.46,1023.58,51.66,17.84,313.7,327.6,1.1,1.4,81.9,95.8,1.1,1.4,NaN, NaN,28.9,339.2,214.7,1099413848,1099413845,1,0.1,060247,060245,128.2,32.706650,-117.236130,NaN,NaN,NaN,18.906, NaN,NaN,NaN, NaN, NaN
20041102,164435,1440,32.706635,-117.236267,0.0,18.901,0.077,0.139,2045.94,0.0,0.238, NaN, NaN, NaN,0.000,   NaN,17.40,1023.56,51.75,17.84,315.2,328.3,1.2,1.5,83.4,96.5,1.2,1.5,NaN, NaN,28.9,339.2,214.7,1099413877,1099413875,1,0.1,060277,060275,128.2,32.706650,-117.236143,NaN,NaN,NaN,18.906, NaN,NaN,NaN, NaN, NaN
20041102,164506,1472,32.706631,-117.236263,0.0,18.901,0.077,0.139,2050.49,0.0,0.237, NaN, NaN, NaN,0.000,   NaN,17.41,1023.58,47.84,17.75,312.6,323.9,1.2,1.5,80.8,92.1,1.2,1.5,NaN, NaN,28.5,339.2,214.7,1099413908,1099413905,1,0.0,060307,060305,128.2,32.706635,-117.236152,NaN,NaN,NaN,18.906, NaN,NaN,NaN, NaN, NaN
20041102,164535,1500,32.706633,-117.236265,0.0,18.901,0.077,0.139,2050.33,0.0,0.234, NaN, NaN, NaN,0.000,   NaN,17.44,1023.58,49.62,17.78,309.5,320.1,1.2,1.4,77.7,88.4,1.2,1.4,NaN, NaN,29.8,339.2,214.7,1099413937,1099413935,1,0.0,060337,060335,128.4,32.706631,-117.236167,NaN,NaN,NaN,18.906, NaN,NaN,NaN, NaN, NaN
20041102,164606,1531,32.706631,-117.236262,0.0,18.901,0.077,0.139,2052.56,0.0,0.238, NaN, NaN, NaN,0.000,   NaN,17.43,1023.57,51.06,17.78,307.3,318.4,1.1,1.3,75.6,86.7,1.1,1.3,NaN, NaN,30.9,339.2,214.7,1099413968,1099413965,1,0.0,060367,060365,128.3,32.706626,-117.236168,NaN,NaN,NaN,18.906, NaN,NaN,NaN, NaN, NaN
20041102,164635,1561,32.706630,-117.236260,0.0,18.901,0.077,0.139,2055.07,0.0,0.236, NaN, NaN, NaN,0.000,   NaN,17.48,1023.58,50.92,17.75,305.1,314.9,1.1,1.2,73.5,83.3,1.1,1.2,NaN, NaN,31.6,339.2,214.7,1099413997,1099413995,1,0.1,060397,060395,128.3,32.706636,-117.236165,NaN,NaN,NaN,18.906, NaN,NaN,NaN, NaN, NaN
20041102,164706,1591,32.706630,-117.236258,0.0,18.901,0.077,0.139,2057.32,0.0,0.237, NaN, NaN, NaN,0.000,   NaN,17.45,1023.58,51.80,17.75,302.6,311.3,1.0,1.2,71.0,79.7,1.0,1.2,NaN, NaN,31.4,339.2,214.7,1099414028,1099414025,1,0.1,060427,060425,128.7,32.706638,-117.236160,NaN,NaN,NaN,18.906, NaN,NaN,NaN, NaN, NaN
20041102,164736,1621,32.706630,-117.236262,0.0,18.902,0.077,0.139,2060.11,0.0,0.234, NaN, NaN, NaN,0.000,   NaN,17.44,1023.58,46.38,17.57,299.6,303.8,1.1,1.4,68.0,72.3,1.1,1.4,NaN, NaN,31.3,339.2,214.7,1099414058,1099414055,1,0.0,060458,060455,128.6,32.706630,-117.236157,NaN,NaN,NaN,18.907, NaN,NaN,NaN, NaN, NaN
20041102,164806,1652,32.706630,-117.236263,0.0,18.902,0.077,0.139,2059.90,0.0,0.235, NaN, NaN, NaN,0.000,   NaN,17.42,1023.58,45.95,17.48,296.1,296.9,1.2,1.4,64.6,65.4,1.2,1.4,NaN, NaN,31.0,339.2,214.7,1099414088,1099414085,1,0.0,060487,060485,128.2,32.706626,-117.236158,NaN,NaN,NaN,18.907, NaN,NaN,NaN, NaN, NaN
20041102,164837,1682,32.706626,-117.236263,0.0,18.902,0.077,0.139,2060.04,0.0,0.237, NaN, NaN, NaN,0.000,   NaN,17.42,1023.58,46.92,17.44,294.2,293.9,1.2,1.4,62.5,62.2,1.2,1.4,NaN, NaN,30.1,339.2,214.7,1099414118,1099414115,1,0.1,060518,060515,128.1,32.706631,-117.236163,NaN,NaN,NaN,18.907, NaN,NaN,NaN, NaN, NaN
20041102,164907,1713,32.706628,-117.236267,0.0,18.902,0.077,0.139,2059.13,0.0,0.235, NaN, NaN, NaN,0.000,   NaN,17.41,1023.57,46.98,17.38,294.9,296.1,1.3,1.5,63.0,64.3,1.3,1.5,NaN, NaN,29.8,339.2,214.7,1099414149,1099414145,1,0.0,060548,060545,128.2,32.706643,-117.236160,NaN,NaN,NaN,18.907, NaN,NaN,NaN, NaN, NaN
20041102,164937,1743,32.706630,-117.236267,0.0,18.902,0.077,0.139,2061.53,0.0,0.232, NaN, NaN, NaN,0.000,   NaN,17.37,1023.55,47.63,17.32,291.9,292.1,1.3,1.6,60.2,60.4,1.3,1.6,NaN, NaN,29.2,339.2,214.7,1099414179,1099414180,1,0.0,060579,060580,128.3,32.706656,-117.236158,NaN,NaN,NaN,18.907, NaN,NaN,NaN, NaN, NaN
20041102,165008,1773,32.706630,-117.236265,0.0,18.902,0.077,0.139,2061.66,0.0,0.232, NaN, NaN, NaN,0.000,   NaN,17.36,1023.54,48.10,17.32,289.8,289.4,1.3,1.6,58.1,57.6,1.3,1.6,NaN, NaN,29.1,339.2,214.7,1099414210,1099414210,1,0.1,060609,060610,128.6,32.706658,-117.236157,NaN,NaN,NaN,18.907, NaN,NaN,NaN, NaN, NaN
20041102,165037,1802,32.706631,-117.236267,0.0,18.902,0.077,0.139,2063.41,0.0,0.233, NaN, NaN, NaN,0.000,   NaN,17.38,1023.52,48.14,17.24,288.1,288.2,1.3,1.6,56.4,56.4,1.3,1.6,NaN, NaN,28.9,339.2,214.7,1099414239,1099414235,1,0.1,060639,060640,127.4,32.706666,-117.236165,NaN,NaN,NaN,18.907, NaN,NaN,NaN, NaN, NaN
20041102,165108,1833,32.706635,-117.236267,0.0,18.902,0.077,0.139,2064.26,0.0,0.233, NaN, NaN, NaN,0.000,   NaN,17.41,1023.54,49.39,17.27,291.9,295.0,1.3,1.6,59.6,62.7,1.3,1.6,NaN, NaN,29.8,339.2,214.7,1099414270,1099414270,1,0.1,060669,060670,126.6,32.706663,-117.236160,NaN,NaN,NaN,18.907, NaN,NaN,NaN, NaN, NaN
20041102,165137,1862,32.706633,-117.236268,0.0,18.902,0.077,0.139,2066.75,0.0,0.233, NaN, NaN, NaN,0.000,   NaN,17.42,1023.52,52.18,17.35,299.3,307.3,1.2,1.5,66.4,74.4,1.2,1.5,NaN, NaN,30.4,339.2,214.7,1099414299,1099414295,1,0.0,060699,060700,127.5,32.706648,-117.236155,NaN,NaN,NaN,18.907, NaN,NaN,NaN, NaN, NaN
20041102,165207,1893,32.706635,-117.236260,0.0,18.902,0.077,0.139,2066.66,0.0,0.234, NaN, NaN, NaN,0.000,   NaN,17.41,1023.50,52.40,17.35,303.5,312.3,1.2,1.5,70.5,79.2,1.2,1.5,NaN, NaN,30.9,339.2,214.7,1099414329,1099414325,1,0.1,060728,060725,126.2,32.706645,-117.236147,NaN,NaN,NaN,18.907, NaN,NaN,NaN, NaN, NaN
20041102,165237,1923,32.706625,-117.236203,0.0,18.902,0.077,0.139,2066.23,0.0,0.239, NaN, NaN, NaN,0.000,   NaN,17.38,1023.52,51.77,17.41,305.4,314.1,1.3,1.5,73.3,81.8,1.3,1.5,NaN, NaN,30.8,339.2,58.5,1099414359,1099414355,1,0.3,060758,060760,124.0,32.706638,-117.236090,NaN,NaN,NaN,18.907, NaN,NaN,NaN, NaN, NaN
20041102,165308,1953,32.706588,-117.236103,0.0,18.902,0.077,0.139,2067.73,0.0,0.233, NaN, NaN, NaN,0.000,   NaN,17.35,1023.49,52.41,17.41,311.2,321.6,1.3,1.6,83.1,91.8,1.4,1.7,NaN, NaN,30.7,339.2,110.8,1099414390,1099414390,1,0.7,060789,060790,123.6,32.706600,-117.235987,NaN,NaN,NaN,18.907, NaN,NaN,NaN, NaN, NaN
20041102,165338,1984,32.706531,-117.235967,0.0,18.902,0.077,0.139,2072.28,0.0,0.236, NaN, NaN, NaN,0.000,   NaN,17.31,1023.52,52.35,17.44,318.6,330.8,1.3,1.6,97.3,106.0,1.5,1.8,NaN, NaN,30.7,339.2,119.6,1099414420,1099414420,1,1.0,060820,060820,129.0,32.706536,-117.235845,NaN,NaN,NaN,18.907, NaN,NaN,NaN, NaN, NaN
20041102,165408,2013,32.706441,-117.235815,0.0,18.902,0.077,0.139,2080.27,0.0,0.235, NaN, NaN, NaN,0.000,   NaN,17.30,1023.53,51.62,17.51,319.7,332.7,1.3,1.6,97.1,108.6,1.4,1.7,NaN, NaN,30.2,129.8,129.3,1099414450,1099414450,1,1.2,060849,060850,137.1,32.706433,-117.235688,NaN,NaN,NaN,18.907, NaN,NaN,NaN, NaN, NaN
20041102,165438,2043,32.706295,-117.235640,0.0,18.901,0.077,0.139,2091.63,0.0,0.238, NaN, NaN, NaN,0.000,   NaN,17.31,1023.51,49.22,17.48,316.4,328.3,1.4,1.6,79.3,96.7,1.2,1.4,NaN, NaN,30.6,137.5,137.0,1099414480,1099414480,1,1.6,060879,060880,142.6,32.706296,-117.235502,NaN,NaN,NaN,18.906, NaN,NaN,NaN, NaN, NaN
20041102,165507,2073,32.706090,-117.235440,0.0,18.901,0.077,0.139,2097.25,0.0,0.234, NaN, NaN, NaN,0.000,   NaN,17.33,1023.50,50.14,17.51,315.6,326.3,1.4,1.7,62.1,84.4,0.9,1.0,NaN, NaN,30.2,143.9,143.4,1099414509,1099414510,1,2.1,060909,060910,147.3,32.706078,-117.235303,NaN,NaN,NaN,18.906, NaN,NaN,NaN, NaN, NaN
20041102,165539,2104,32.705776,-117.235207,0.0,18.901,0.077,0.139,2104.61,0.0,0.245, NaN, NaN, NaN,0.000,   NaN,17.29,1023.51,51.40,17.59,319.6,330.3,1.6,1.9,59.2,85.1,1.0,1.0,NaN, NaN,29.7,149.5,148.8,1099414540,1099414540,1,3.0,060939,060940,149.6,32.705753,-117.235057,NaN,NaN,NaN,18.906, NaN,NaN,NaN, NaN, NaN
20041102,165608,2134,32.705356,-117.234932,0.0,18.901,0.077,0.139,2113.90,0.0,0.243, NaN, NaN, NaN,0.000,   NaN,17.29,1023.54,50.34,17.57,325.3,336.1,1.8,2.1,57.5,87.1,1.0,0.9,NaN, NaN,29.2,153.5,152.7,1099414570,1099414570,1,3.6,060969,060970,153.2,32.705326,-117.234787,NaN,NaN,NaN,18.906, NaN,NaN,NaN, NaN, NaN
20041102,165638,2164,32.704856,-117.234648,0.0,18.900,0.077,0.139,2120.13,0.0,0.233, NaN, NaN, NaN,0.000,   NaN,17.19,1023.51,51.07,17.59,328.2,337.4,2.1,2.4,57.0,84.7,1.1,1.0,NaN, NaN,28.7,155.2,154.9,1099414600,1099414600,1,4.1,060999,061000,156.2,32.704823,-117.234498,NaN,NaN,NaN,18.905, NaN,NaN,NaN, NaN, NaN
20041102,165707,2192,32.704300,-117.234367,0.0,18.900,0.077,0.139,2125.15,0.0,0.233, NaN, NaN, NaN,0.000,   NaN,17.17,1023.53,50.17,17.54,329.8,337.3,2.2,2.6,57.4,82.3,1.1,1.1,NaN, NaN,28.8,157.8,157.2,1099414629,1099414625,1,4.4,061029,061030,157.3,32.704245,-117.234188,NaN,NaN,NaN,18.905, NaN,NaN,NaN, NaN, NaN
20041102,165739,2225,32.703713,-117.234073,0.0,18.899,0.077,0.139,2127.22,0.0,0.239, NaN, NaN, NaN,0.000,   NaN,17.15,1023.51,48.24,17.48,328.1,334.6,2.4,2.7,54.7,76.3,1.3,1.2,NaN, NaN,28.8,155.6,156.5,1099414660,1099414660,1,4.8,061059,061060,155.4,32.703673,-117.233912,NaN,NaN,NaN,18.904, NaN,NaN,NaN, NaN, NaN
20041102,165809,2254,32.703005,-117.233680,0.0,18.899,0.077,0.139,2132.29,0.0,0.234, NaN, NaN, NaN,0.000,   NaN,17.11,1023.48,49.22,17.54,327.2,332.7,2.5,2.9,48.8,68.9,1.4,1.3,NaN, NaN,29.3,155.5,155.3,1099414691,1099414690,1,5.7,061090,061090,157.3,32.702996,-117.233540,NaN,NaN,NaN,18.904, NaN,NaN,NaN, NaN, NaN